FW1761 Weather Reports


Display with metric or nautical units.
time (UTC)temp
F
wind
direction
speed
MPH
gust
MPH
rain 1hr
in
rain 24hr
in
rain mn
in
humidity
%
barometer
mb
20260506040028 32 0.0 0.0 0.00 0.57 0.57 93 1017.5
20260506034524 32 0.0 0.0 0.00 0.60 0.57 93 1017.4
20260506033019 32 0.0 0.0 0.00 0.60 0.57 93 1017.3
20260506031517 32 0.0 0.0 0.00 0.60 0.57 93 1017.0
20260506030010 32 0.0 0.0 0.01 0.72 0.57 93 1016.5
20260506024506 32 0.0 0.0 0.01 0.72 0.57 93 1016.2
20260506023000 32 0.0 0.0 0.01 0.72 0.57 93 1015.9
20260506021603 32 0.0 0.0 0.02 0.72 0.57 93 1015.5
20260506020053 32 0.0 0.0 0.01 0.71 0.56 93 1015.2
20260506014555 32 0.0 0.0 0.01 0.71 0.56 93 1015.1
20260506013047 32 0.0 0.0 0.01 0.71 0.56 93 1014.7
20260506011539 32 0.0 0.0 0.00 0.70 0.56 93 1014.5
20260506010036 32 0.0 0.0 0.00 0.70 0.56 93 1013.9
20260506004550 32 0.0 0.0 0.00 0.70 0.56 93 1013.8
20260506003026 33 0.0 0.0 0.00 0.70 0.56 93 1013.9
20260506001522 32 0.0 0.0 0.01 0.70 0.56 93 1013.6
20260506000018 33 0.0 0.0 0.01 0.70 0.56 93 1013.5
20260505234531 33 0.0 0.0 0.01 0.70 0.56 93 1013.3
20260505233010 32 0.0 0.0 0.01 0.70 0.56 93 1013.0
20260505231508 32 0.0 0.0 0.00 0.69 0.55 93 1012.8
20260505230100 32 0.0 0.0 0.01 0.69 0.55 92 1012.9
20260505224556 33 0.0 0.0 0.01 0.69 0.55 92 1012.7
20260505223101 33 0.0 0.0 0.01 0.69 0.55 92 1012.6
20260505221559 34 0.0 0.0 0.01 0.69 0.55 92 1011.8
20260505220048 34 0.0 0.0 0.01 0.68 0.54 92 1012.3
20260505214543 35 0.0 0.0 0.02 0.68 0.54 93 1011.6
20260505213034 34 0.0 0.0 0.02 0.68 0.54 93 1011.4
20260505211530 34 0.0 0.0 0.04 0.68 0.54 92 1011.5
20260505210028 35 0.0 0.0 0.05 0.67 0.53 91 1011.4
20260505204526 38 0.0 0.0 0.05 0.66 0.52 93 1011.1
20260505203016 37 0.0 0.0 0.05 0.66 0.52 93 1011.1
20260505201512 37 0.0 0.0 0.04 0.64 0.50 93 1011.4
20260505200017 37 0.0 0.0 0.03 0.62 0.48 93 1011.4
20260505194504 37 0.0 0.0 0.04 0.61 0.47 93 1010.8
20260505193059 37 0.0 0.0 0.04 0.61 0.47 93 1011.2
20260505191557 37 0.0 0.0 0.04 0.60 0.46 93 1011.0
20260505190054 37 0.0 0.0 0.04 0.59 0.45 93 1010.7
20260505184547 37 0.0 0.0 0.04 0.56 0.43 92 1010.7
20260505183048 37 0.0 0.0 0.05 0.56 0.43 92 1010.6
20260505181539 37 0.0 0.0 0.06 0.56 0.42 94 1010.9
20260505180033 36 0.0 0.0 0.05 0.55 0.41 93 1010.8
20260505174529 36 0.0 0.0 0.04 0.53 0.39 92 1010.7
20260505173025 36 0.0 0.0 0.03 0.51 0.37 93 1010.7
20260505171520 36 0.0 0.0 0.02 0.50 0.36 93 1010.9
20260505170018 36 0.0 0.0 0.03 0.50 0.36 93 1011.0
20260505164512 36 0.0 0.0 0.03 0.49 0.35 93 1010.8
20260505163009 35 0.0 0.0 0.03 0.48 0.34 93 1010.9
20260505161503 35 0.0 0.0 0.04 0.48 0.34 93 1011.0
20260505160109 35 0.0 0.0 0.03 0.47 0.33 93 1011.0
20260505153052 34 0.0 0.0 0.04 0.45 0.31 93 1010.9
20260505151546 35 0.0 0.0 0.05 0.44 0.30 93 1011.0
20260505124503 33 0.0 0.0 0.03 0.34 0.20 91 1009.8
20260505123058 34 0.0 0.0 0.03 0.33 0.19 90 1009.7
20260505121554 34 0.0 0.0 0.04 0.33 0.19 90 1009.6
20260505120053 35 0.0 0.0 0.04 0.32 0.18 91 1009.4
20260505114547 36 0.0 0.0 0.03 0.31 0.17 91 1009.3
20260505113041 36 0.0 0.0 0.05 0.30 0.16 91 1009.2
20260505111536 37 0.0 0.0 0.06 0.28 0.15 90 1008.9
20260505101525 40 0.0 0.0 0.09 0.23 0.09 90 1008.4
20260505100015 40 0.0 0.0 0.08 0.22 0.08 90 1008.1
20260505094523 41 0.0 0.0 0.06 0.20 0.06 90 1008.1
20260505093006 41 0.0 0.0 0.02 0.16 0.02 89 1007.8
20260505091501 42 0.0 0.0 0.00 0.14 0.00 89 1007.7
20260505090058 42 0.0 0.0 0.00 0.14 0.00 89 1007.4
20260505084554 42 0.0 0.0 0.00 0.14 0.00 89 1007.1
20260505083049 42 0.0 0.0 0.00 0.14 0.00 89 1007.0
20260505081544 42 0.0 0.0 0.00 0.14 0.00 89 1007.0
20260505080040 43 0.0 0.0 0.00 0.14 0.00 88 1006.8
20260505074537 43 0.0 0.0 0.00 0.14 0.00 89 1006.9
20260505073040 44 0.0 0.0 0.00 0.14 0.00 87 1006.8
20260505071529 45 0.0 0.0 0.00 0.14 0.00 91 1006.7
20260505070035 45 0.0 0.0 0.00 0.14 0.00 91 1006.4
20260505064518 45 0.0 0.0 0.00 0.14 0.00 91 1006.1
20260505063014 45 0.0 0.0 0.00 0.14 0.00 91 1006.1
20260505061508 45 0.0 0.0 0.00 0.14 0.00 91 1006.0
20260505060005 44 0.0 0.0 0.00 0.14 0.14 90 1005.9
20260505054611 45 0.0 0.0 0.00 0.14 0.14 90 1005.9
20260505053101 44 0.0 0.0 0.00 0.14 0.14 89 1005.8
20260505051552 45 0.0 0.0 0.00 0.14 0.14 89 1005.5
20260505041549 45 0.0 0.0 0.00 0.14 0.14 87 1005.6